Location: Brunembert
(50.7122°N, 1.8935°E)
Time: 03:44:53
(UTC+00:00)

Cosmos 1842 Rocket - Pass Details

Date: 22 April 2021
Orbit: 606 x 633 km, 82.5° (Epoch: 06 May)

Event Time Altitude Azimuth Distance (km) Brightness Sun altitude
Exits shadow 21:20:26 42° 130° (SE) 906 3.9 -18.8°
Maximum altitude 21:21:19 48° 94° (E) 824 3.9 -18.9°
Drops below altitude 10° 21:25:38 10° 20° (NNE) 2,025 6.6 -19.3°
Sets 21:27:57 0° 15° (NNE) 2,940 7.6 -19.5°
